Tracking 29892 objects as of 21-Nov-2024
HD Live streaming from Space Station
objects crossing your sky now

ONEWEB-0113

Track ONEWEB-0113 now!
10-day predictions
ONEWEB-0113 is classified as:


NORAD ID: 48050
Int'l Code: 2021-025J
Perigee: 1,215.5 km
Apogee: 1,218.3 km
Inclination: 87.9 °
Period: 109.6 minutes
Semi major axis: 7587 km
RCS: Unknown
Launch date: March 25, 2021
Source: United States (US)
Launch site: VOSTOCHNY COSMODROME (VOSTO)
Your satellite tracking list
Your tracking list is empty




NASA's NSSDC Master Catalog

Two Line Element Set (TLE):
1 48050U 21025J   24325.27562176  .00000916  00000-0  24719-2 0  9990
2 48050  87.8927  74.3697 0001793  99.7514 260.3817 13.13469432178246
Source of the keplerian elements: AFSPC